Location: *
(58.4167°N, 22.5000°E)
Time: 16:02:58
(UTC+00:00)

CENTAUR R/B - Pass Details

Date: 22 September 2019
Orbit: 780 x 1408 km, 63.4° (Epoch: 12 October)

Event Time Altitude Azimuth Distance (km) Brightness Sun altitude
Exits shadow 23:39:20 16° 119° (ESE) 2,367 4.4 -29.5°
Maximum altitude 23:40:29 17° 106° (ESE) 2,361 4.5 -29.5°
Drops below altitude 10° 23:44:31 10° 70° (ENE) 2,951 5.5 -29.3°
Sets 23:48:28 0° 52° (NE) 4,048 6.6 -29.1°
